ONEWEB-0090, 45427

Orbit data source: Space-Track

ONEWEB-0090, 45427 is a payload satellite owned by One Web (UK) in LEO that was launched on Sat, 21 Mar 2020 UTC via a SOYUZ-2-1B launch vehicle from the Tyuratam Missile And Space Complex (TTMTR). Payload-class satellites include a variety of spacecraft equipped with specific instruments for various scientific and technological missions. These include communications satellites like Starlink; space stations such as the ISS; scientific satellites like the Hubble; Earth observation satellites from companies like Planet Labs, Umbra, and HawkEye 360; GPS; miniature CubeSats for education and research; and military/defense satellites.

Loading next visibility...
Identifier
45427, 2020-020D
Orbit
LEO
Country
Flag of UKUK
Related business
Manufacturer
One Web
Mission
Operational Commercial Communications
Bus & Motor
ARROW, Unknown motor
Mass
148 kg wet, ~140 kg dry
Launch date (UTC)
2020-03-21 (5 years ago)
Launch vehicle
SOYUZ-2-1B
Launch site
Tyuratam Missile And Space Complex (TTMTR)
Object type
Payload
Rocket body
Debris
Shape & HBR
Trap Box + 2 Pan, 2.5 m
Radar Cross Section
2.957 m², Large (>1 m²)

Expand to show TLE details & history
Last TLE update: 12 hours ago

TLE from 12 hours ago
0 ONEWEB-0090
1 45427U 20020D   25260.98592751 -.00000349  00000-0 -10204-2 0  9994
2 45427  87.8784  75.2881 0001668  91.7980 268.3339 13.11419459266996
Epoch: 2025-09-17T23:39Z
TLE epoch observation values (Epoch: 2025-09-17T23:39:44.136Z)
Latitude
-0.00004°
Longitude
83.20018°
Altitude
1,220.599 km
Speed
7.244 km/s
True Right ascension
05h 01m 09s
True Declination
0° 00' 00"
Sunlit
Object was in daylight at epoch
Visualization orbit readout
Latitude
Unknown
Longitude
Unknown
Altitude
Unknown
Speed
Unknown
Apparent Right ascension
Unknown
Apparent Declination
Unknown
Sunlit
N/A
Visualization observer readout
Local Sidereal Time
04:57:12
Azimuth
Unknown
Elevation
Unknown
Doppler factor
Unknown
Orbital elements
Apogee altitude
1,216.058 km
Perigee altitude
1,213.525 km
Semi-major axis
7,592.928 km
Eccentricity
0.00017
Inclination
87.8784°
RAAN
75.2881°
Arg. of periapsis
91.798°
True anomaly
268.31479°
Mean anomaly
268.3339°
Eccentric anomaly
268.32435°
Mean motion
3.28042 °/min
Orbital period
109.74 mins
BSTAR
-0.0010204
Loading maneuver chart data...
Computing Atmospheric mass density...
Loading historical data...
Loading historical data...
Loading historical data...
Loading historical data...
Loading historical data...
Loading historical data...
Loading historical data...

Documentation

Showing up to 5 results
|